| time (UTC) | temp F | wind direction | speed MPH | gust MPH | rain 1hr in | rain 24hr in | rain mn in | humidity % | barometer mb |
| 20260502163003 | 52 | 0 | 0.0 | 0.0 | 0.07 | 0.51 | 0.51 | 97 | 1012.7 |
| 20260502162504 | 52 | 0 | 0.0 | 0.0 | 0.08 | 0.51 | 0.51 | 97 | 1012.8 |
| 20260502162004 | 52 | 0 | 0.0 | 0.0 | 0.08 | 0.51 | 0.51 | 97 | 1012.7 |
| 20260502160504 | 52 | 0 | 0.0 | 3.0 | 0.09 | 0.50 | 0.50 | 97 | 1012.8 |
| 20260502152003 | 53 | 0 | 0.0 | 0.0 | 0.13 | 0.43 | 0.43 | 96 | 1013.3 |
| 20260502151504 | 53 | 0 | 0.0 | 0.0 | 0.13 | 0.42 | 0.42 | 96 | 1013.4 |
| 20260502151004 | 53 | 0 | 0.0 | 0.0 | 0.17 | 0.41 | 0.41 | 96 | 1013.5 |
| 20260502123505 | 54 | 0 | 0.0 | 0.0 | 0.02 | 0.02 | 0.02 | 90 | 1014.7 |
| 20260502122506 | 55 | 0 | 0.0 | 3.0 | 0.02 | 0.02 | 0.02 | 90 | 1014.8 |
| 20260502122005 | 55 | 94 | 2.0 | 4.0 | 0.01 | 0.02 | 0.02 | 90 | 1014.9 |
| 20260502121505 | 55 | 91 | 2.0 | 7.0 | 0.01 | 0.02 | 0.02 | 90 | 1015.0 |
| 20260502121006 | 55 | 98 | 2.0 | 7.0 | 0.00 | 0.01 | 0.01 | 90 | 1015.1 |
| 20260502120505 | 55 | 82 | 2.0 | 3.0 | 0.00 | 0.01 | 0.01 | 90 | 1015.1 |
| 20260502115506 | 55 | 67 | 2.0 | 6.0 | 0.00 | 0.01 | 0.01 | 90 | 1015.2 |
| 20260502115005 | 55 | 56 | 2.0 | 6.0 | 0.00 | 0.01 | 0.01 | 90 | 1015.2 |
| 20260502114506 | 55 | 42 | 2.0 | 4.0 | 0.00 | 0.01 | 0.01 | 90 | 1015.2 |
| 20260502112506 | 56 | 122 | 2.0 | 3.0 | 0.00 | 0.01 | 0.01 | 88 | 1015.5 |
| 20260502110505 | 57 | 156 | 2.0 | 4.0 | 0.00 | 0.01 | 0.01 | 86 | 1015.8 |
| 20260502110005 | 58 | 128 | 2.0 | 9.0 | 0.00 | 0.01 | 0.01 | 85 | 1016.0 |
| 20260502105005 | 58 | 114 | 2.0 | 7.0 | 0.00 | 0.01 | 0.01 | 85 | 1016.0 |
| 20260502103006 | 58 | 118 | 2.0 | 4.0 | 0.00 | 0.01 | 0.01 | 85 | 1016.3 |
| 20260502102006 | 57 | 96 | 3.0 | 7.0 | 0.00 | 0.01 | 0.01 | 85 | 1016.3 |
| 20260502101505 | 57 | 97 | 3.0 | 9.0 | 0.00 | 0.01 | 0.01 | 85 | 1016.4 |
| 20260502101005 | 57 | 108 | 3.0 | 9.0 | 0.00 | 0.01 | 0.01 | 85 | 1016.5 |
| 20260502100505 | 57 | 106 | 2.0 | 7.0 | 0.00 | 0.01 | 0.01 | 85 | 1016.5 |
| 20260502091505 | 58 | 165 | 2.0 | 7.0 | 0.00 | 0.01 | 0.01 | 86 | 1016.9 |
| 20260502090505 | 57 | 104 | 2.0 | 6.0 | 0.00 | 0.01 | 0.01 | 88 | 1016.8 |
| 20260502071505 | 49 | 0 | 0.0 | 0.0 | 0.01 | 0.01 | 0.01 | 100 | 1017.9 |
| 20260502065505 | 47 | 0 | 0.0 | 0.0 | 0.01 | 0.01 | 0.01 | 100 | 1017.9 |
| 20260502063505 | 47 | 0 | 0.0 | 0.0 | 0.01 | 0.01 | 0.01 | 100 | 1018.1 |
| 20260502063004 | 46 | 0 | 0.0 | 0.0 | 0.01 | 0.01 | 0.01 | 100 | 1018.1 |
| 20260502062505 | 46 | 0 | 0.0 | 0.0 | 0.01 | 0.01 | 0.01 | 100 | 1018.1 |
| 20260502062005 | 46 | 0 | 0.0 | 0.0 | 0.00 | 0.00 | 0.00 | 100 | 1018.0 |
| 20260502061005 | 46 | 0 | 0.0 | 0.0 | 0.00 | 0.00 | 0.00 | 100 | 1018.0 |
| 20260502060504 | 45 | 0 | 0.0 | 0.0 | 0.00 | 0.00 | 0.00 | 100 | 1018.0 |
| 20260502054005 | 45 | 0 | 0.0 | 0.0 | 0.00 | 0.00 | 0.00 | 97 | 1018.2 |
| 20260502053505 | 45 | 0 | 0.0 | 0.0 | 0.00 | 0.00 | 0.00 | 97 | 1018.2 |
| 20260502053004 | 45 | 0 | 0.0 | 0.0 | 0.00 | 0.00 | 0.00 | 97 | 1018.2 |
| 20260502052505 | 45 | 0 | 0.0 | 0.0 | 0.00 | 0.00 | 0.00 | 97 | 1018.2 |
| 20260502051005 | 45 | 0 | 0.0 | 0.0 | 0.00 | 0.00 | 0.00 | 97 | 1018.4 |
| 20260502050505 | 45 | 0 | 0.0 | 0.0 | 0.00 | 0.00 | 0.00 | 97 | 1018.5 |
| 20260502050004 | 45 | 0 | 0.0 | 0.0 | 0.00 | 0.00 | 0.00 | 97 | 1018.5 |
| 20260502045505 | 45 | 0 | 0.0 | 0.0 | 0.00 | 0.00 | 0.00 | 97 | 1018.6 |
| 20260502045004 | 44 | 0 | 0.0 | 0.0 | 0.00 | 0.00 | 0.00 | 97 | 1018.6 |
| 20260502044505 | 45 | 0 | 0.0 | 0.0 | 0.00 | 0.00 | 0.00 | 97 | 1018.7 |
| 20260502043504 | 45 | 0 | 0.0 | 0.0 | 0.00 | 0.00 | 0.00 | 97 | 1018.7 |
| 20260502042004 | 45 | 0 | 0.0 | 0.0 | 0.00 | 0.00 | 0.00 | 97 | 1018.7 |
| 20260502041505 | 45 | 0 | 0.0 | 0.0 | 0.00 | 0.00 | 0.00 | 97 | 1018.8 |
| 20260502040504 | 45 | 0 | 0.0 | 0.0 | 0.00 | 0.00 | 0.00 | 97 | 1018.7 |
| 20260502040005 | 45 | 0 | 0.0 | 0.0 | 0.00 | 0.00 | 0.00 | 97 | 1018.7 |
| 20260502035504 | 45 | 0 | 0.0 | 0.0 | 0.00 | 0.00 | 0.00 | 97 | 1018.8 |
| 20260502034505 | 45 | 0 | 0.0 | 0.0 | 0.00 | 0.00 | 0.00 | 97 | 1018.8 |
| 20260502034005 | 45 | 0 | 0.0 | 0.0 | 0.00 | 0.00 | 0.00 | 97 | 1018.8 |
| 20260502033504 | 45 | 0 | 0.0 | 0.0 | 0.00 | 0.00 | 0.00 | 97 | 1018.9 |
| 20260502032004 | 45 | 0 | 0.0 | 0.0 | 0.00 | 0.00 | 0.00 | 97 | 1018.9 |
| 20260502031504 | 45 | 0 | 0.0 | 0.0 | 0.00 | 0.00 | 0.00 | 97 | 1018.9 |
| 20260502031004 | 45 | 0 | 0.0 | 0.0 | 0.00 | 0.00 | 0.00 | 97 | 1018.9 |
| 20260502025504 | 45 | 0 | 0.0 | 0.0 | 0.00 | 0.00 | 0.00 | 97 | 1018.9 |
| 20260502025004 | 45 | 0 | 0.0 | 0.0 | 0.00 | 0.00 | 0.00 | 97 | 1018.9 |
| 20260501174504 | 58 | 250 | 3.0 | 16.0 | 0.00 | 0.00 | 0.00 | 85 | 1019.8 |
| 20260501174003 | 58 | 264 | 3.0 | 12.0 | 0.00 | 0.00 | 0.00 | 85 | 1019.8 |
| 20260501173504 | 58 | 256 | 4.0 | 19.0 | 0.00 | 0.00 | 0.00 | 84 | 1019.9 |